EW9994 Weather Reports


time (UTC)temp
C
wind
direction
speed
KPH
gust
KPH
rain 1hr
cm
rain 24hr
cm
rain mn
cm
humidity
%
barometer
mb
20260509130907 25 322 3.2 4.8 0.00 0.00 0.00 41 1015.8
20260509130407 24 351 4.8 14.5 0.00 0.00 0.00 39 1015.8
20260509124907 25 154 3.2 11.3 0.00 0.00 0.00 40 1016.1
20260509124407 25 195 9.7 19.3 0.00 0.00 0.00 40 1016.2
20260509121906 24 254 8.0 12.9 0.00 0.00 0.00 41 1016.3
20260509121406 24 247 6.4 12.9 0.00 0.00 0.00 43 1016.4
20260509120906 24 185 8.0 19.3 0.00 0.00 0.00 44 1016.4
20260509120407 25 227 9.7 14.5 0.00 0.00 0.00 43 1016.4
20260509114406 24 234 3.2 8.0 0.00 0.00 0.00 46 1016.5
20260509113906 23 114 4.8 11.3 0.00 0.00 0.00 44 1016.6
20260509111907 23 250 1.6 9.7 0.00 0.00 0.00 49 1016.7
20260509110906 23 227 8.0 12.9 0.00 0.00 0.00 49 1016.7
20260509110406 23 241 3.2 12.9 0.00 0.00 0.00 49 1016.6
20260509104906 22 204 3.2 11.3 0.00 0.00 0.00 49 1016.7
20260509104411 22 183 6.4 9.7 0.00 0.00 0.00 50 1016.8
20260509103407 22 242 8.0 14.5 0.00 0.00 0.00 50 1016.9
20260509100906 22 243 4.8 9.7 0.00 0.00 0.00 52 1017.0
20260509100406 22 196 8.0 12.9 0.00 0.00 0.00 53 1017.1
20260509094906 21 242 4.8 14.5 0.00 0.00 0.00 55 1017.1
20260509094410 21 195 4.8 12.9 0.00 0.00 0.00 53 1017.2
20260509093406 21 199 8.0 9.7 0.00 0.00 0.00 56 1017.3
20260509091406 21 243 6.4 9.7 0.00 0.00 0.00 56 1017.5
20260509090906 20 214 3.2 4.8 0.00 0.00 0.00 61 1017.4
20260509090406 20 199 4.8 9.7 0.00 0.00 0.00 62 1017.4
20260509080906 18 206 3.2 4.8 0.00 0.00 0.00 71 1017.8
20260509074906 17 233 4.8 9.7 0.00 0.00 0.00 74 1018.0
20260509073906 17 217 3.2 9.7 0.00 0.00 0.00 75 1018.1
20260509070406 17 47 1.6 3.2 0.00 0.00 0.00 75 1017.9
20260509064406 16 47 1.6 1.6 0.00 0.00 0.00 78 1018.2
20260509063409 16 47 1.6 1.6 0.00 0.00 0.00 79 1018.2
20260509061906 15 47 1.6 3.2 0.00 0.00 0.00 81 1018.3
20260509061406 15 47 1.6 3.2 0.00 0.00 0.00 81 1018.3
20260509054906 13 47 4.8 8.0 0.00 0.00 0.00 82 1018.2
20260509053907 12 47 6.4 8.0 0.00 0.00 0.00 82 1018.2
20260509051906 11 47 3.2 4.8 0.00 0.00 0.00 82 1018.1
20260509050906 11 49 8.0 11.3 0.00 0.00 0.00 82 1018.0
20260509050406 11 41 6.4 11.3 0.00 0.00 0.00 82 1018.0
20260509044906 11 38 8.0 11.3 0.00 0.00 0.00 82 1017.9
20260509044406 11 343 0.0 4.8 0.00 0.00 0.00 82 1017.9
20260509043406 11 28 9.7 14.5 0.00 0.00 0.00 82 1017.7
20260509041406 11 24 9.7 12.9 0.00 0.00 0.00 83 1017.5
20260509040906 11 39 8.0 14.5 0.00 0.00 0.00 83 1017.5
20260509040405 11 27 9.7 14.5 0.00 0.00 0.00 83 1017.5
20260509034406 11 60 1.6 3.2 0.00 0.00 0.00 82 1017.6
20260509033405 11 61 1.6 12.9 0.00 0.00 0.00 82 1017.4
20260509031905 11 53 1.6 11.3 0.00 0.00 0.00 82 1017.3
20260509031406 11 40 6.4 12.9 0.00 0.00 0.00 83 1017.2
20260509024906 11 33 6.4 9.7 0.00 0.00 0.00 82 1017.4
20260509023406 12 34 4.8 8.0 0.00 0.00 0.00 82 1017.3
20260509021905 12 34 3.2 9.7 0.00 0.00 0.00 82 1017.2
20260509021405 12 34 9.7 11.3 0.00 0.00 0.00 82 1017.1
20260509020905 12 33 9.7 11.3 0.00 0.00 0.00 82 1017.0
20260509020405 12 33 4.8 8.0 0.00 0.00 0.00 82 1017.0
20260509014905 12 33 4.8 8.0 0.00 0.00 0.00 82 1017.0
20260509014406 12 33 8.0 11.3 0.00 0.00 0.00 82 1017.0
20260509011906 12 33 3.2 4.8 0.00 0.00 0.00 82 1017.2
20260509011407 12 33 4.8 4.8 0.00 0.00 0.00 82 1017.1
20260509010906 12 33 4.8 8.0 0.00 0.00 0.00 82 1017.1
20260509003406 13 33 1.6 9.7 0.00 0.00 0.00 82 1017.0
20260509001405 13 34 6.4 11.3 0.00 0.00 0.00 82 1016.9
20260508234406 13 30 1.6 4.8 0.00 0.00 0.00 81 1016.9
20260508233906 13 30 3.2 8.0 0.00 0.00 0.00 81 1016.9
20260508230906 13 29 6.4 11.3 0.00 0.00 0.00 80 1017.0
20260508230406 13 25 8.0 12.9 0.00 0.00 0.00 80 1017.0
20260508224406 13 32 3.2 4.8 0.00 0.00 0.00 81 1017.1
20260508223405 13 31 3.2 11.3 0.00 0.00 0.00 80 1017.1
20260508221905 13 36 4.8 9.7 0.00 0.00 0.00 80 1017.1
20260508221405 13 36 4.8 8.0 0.00 0.00 0.00 80 1017.1
20260508220407 13 36 3.2 9.7 0.00 0.00 0.00 80 1017.1
20260508210906 14 36 4.8 8.0 0.00 0.00 0.00 78 1016.7
20260508210405 14 36 3.2 12.9 0.00 0.00 0.00 77 1016.7
20260508204905 15 40 4.8 12.9 0.00 0.00 0.00 76 1016.6
20260508200405 15 45 8.0 14.5 0.00 0.00 0.00 75 1016.6
20260508194906 16 29 4.8 9.7 0.00 0.00 0.00 73 1016.4
20260508191407 16 40 6.4 9.7 0.00 0.00 0.00 73 1015.9
20260508190907 16 24 6.4 9.7 0.00 0.00 0.00 72 1015.9
20260508190407 16 27 8.0 12.9 0.00 0.00 0.00 72 1015.8
20260508184907 17 67 4.8 9.7 0.00 0.00 0.00 67 1015.5
20260508184407 18 67 8.0 11.3 0.00 0.00 0.00 67 1015.4
20260508183406 18 44 11.3 19.3 0.00 0.00 0.00 63 1015.1
20260508181407 19 57 11.3 19.3 0.00 0.00 0.00 62 1014.9
20260508180906 19 31 8.0 19.3 0.00 0.00 0.00 61 1014.8
20260508174906 20 341 4.8 9.7 0.00 0.00 0.00 62 1014.7
20260508173906 20 326 0.0 1.6 0.00 0.00 0.00 62 1014.6
20260508171907 20 56 8.0 14.5 0.00 0.00 0.00 61 1014.3
20260508171407 20 67 6.4 16.1 0.00 0.00 0.00 61 1014.2
20260508170909 20 73 6.4 9.7 0.00 0.00 0.00 60 1014.2
20260508170406 20 341 4.8 14.5 0.00 0.00 0.00 60 1014.2
20260508164907 20 289 3.2 8.0 0.00 0.00 0.00 60 1014.1
20260508164406 20 16 3.2 14.5 0.00 0.00 0.00 60 1014.1
20260508163907 21 3 11.3 22.5 0.00 0.00 0.00 59 1014.1
20260508153907 21 56 6.4 11.3 0.00 0.00 0.00 57 1013.7
20260508153406 21 56 1.6 19.3 0.00 0.00 0.00 57 1013.7
20260508151907 21 6 9.7 19.3 0.00 0.00 0.00 55 1013.7
20260508151406 21 60 4.8 11.3 0.00 0.00 0.00 58 1013.7
20260508150406 21 38 9.7 19.3 0.00 0.00 0.00 57 1013.7
20260508144907 21 29 8.0 14.5 0.00 0.00 0.00 55 1013.8
20260508144406 21 25 9.7 16.1 0.00 0.00 0.00 55 1013.8
20260508143406 21 26 16.1 27.4 0.00 0.00 0.00 55 1013.8
20260508141907 21 30 12.9 20.9 0.00 0.00 0.00 54 1013.9
20260508134409 21 29 6.4 19.3 0.00 0.00 0.00 58 1014.1
20260508133906 21 67 8.0 19.3 0.00 0.00 0.00 57 1014.2
20260508133407 21 21 11.3 24.1 0.00 0.00 0.00 57 1014.2
20260508131907 21 42 11.3 20.9 0.00 0.00 0.00 57 1014.3
20260508131406 21 34 11.3 29.0 0.00 0.00 0.00 58 1014.3